Location: Gollag?dem
(16.8053°N, 80.8024°E)
Time: 09:08:28
(UTC+00:00)

ASTRO E2 - Pass Details

Date: 13 August 2020
Orbit: 510 x 516 km, 31.4° (Epoch: 18 September)

Event Time Altitude Azimuth Distance (km) Brightness Sun altitude
Exits shadow 23:19:50 27° 248° (WSW) 1,003 3.5 -14.6°
Maximum altitude 23:21:54 78° 331° (NNW) 518 2.6 -14.2°
Drops below altitude 10° 23:25:51 10° 59° (ENE) 1,712 6.7 -13.3°
Sets 23:28:04 0° 60° (ENE) 2,597 8.1 -12.8°
